User: anonymous   Login
Location: Bonac
(42.8765°N, 0.9753°E)
Time: 00:08:47
(UTC+00:00)
Language:

BREEZE-M DEB (TANK) - Orbit

View from above orbital plane
View from above orbital plane
View from above satellite
View from above satellite

Ground track
Ground track

The orbit is defined by the following mean orbital elements,

1 37187U          26067.51018091 +.00000000 +00000-0 +17506-2 0 00006
2 37187  49.5398 234.4085 5100665 137.9474 275.2346  5.40454978    05
Epoch (UTC): 08 March 2026 12:14:39
Eccentricity: 0.5100665
inclination: 49.5398°
perigee height: 342 km
apogee height: 14334 km
right ascension of ascending node: 234.4085°
argument of perigee: 137.9474°
revolutions per day: 5.40454978
mean anomaly at epoch: 275.2346°

The dashed part of the orbit path shows where the satellite is in the earth's shadow,  

DLR